Time,TemperatureF,DewpointF,PressureIn,WindDirection,WindDirectionDegrees,WindSpeedMPH,WindSpeedGustMPH,Humidity,HourlyPrecipIn,Conditions,Clouds,dailyrainin,SoftwareType,DateUTC
2013-07-28 00:10:00,57.2,51.0,30.03,NNW,340,0.0,-999.0,80,-99.99,,,0.00,weatherlink.com 1.10,2013-07-28 05:10:00,
2013-07-28 00:25:00,57.2,50.0,30.03,NNW,340,0.0,-999.0,78,-99.99,,,0.00,weatherlink.com 1.10,2013-07-28 05:25:00,
2013-07-28 00:40:00,57.7,49.0,30.02,NNW,340,0.0,-999.0,73,-99.99,,,0.00,weatherlink.com 1.10,2013-07-28 05:40:00,
2013-07-28 00:55:00,57.7,49.0,30.02,NW,320,0.0,-999.0,73,-99.99,,,0.00,weatherlink.com 1.10,2013-07-28 05:55:00,
2013-07-28 01:10:00,58.2,51.0,30.02,SW,222,0.0,-999.0,77,-99.99,,,0.00,weatherlink.com 1.10,2013-07-28 06:10:00,
2013-07-28 01:25:00,58.5,52.0,30.02,WSW,255,0.0,-999.0,78,-99.99,,,0.00,weatherlink.com 1.10,2013-07-28 06:25:00,
2013-07-28 01:41:00,58.9,52.0,30.03,WSW,251,0.0,-999.0,77,-99.99,,,0.00,weatherlink.com 1.10,2013-07-28 06:41:00,
2013-07-28 01:56:00,57.8,51.0,30.02,SW,234,0.0,-999.0,79,-99.99,,,0.00,weatherlink.com 1.10,2013-07-28 06:56:00,
2013-07-28 02:11:00,57.1,51.0,30.02,SW,234,0.0,-999.0,81,-99.99,,,0.00,weatherlink.com 1.10,2013-07-28 07:11:00,
2013-07-28 02:26:00,57.3,51.0,30.02,West,265,0.0,-999.0,80,-99.99,,,0.00,weatherlink.com 1.10,2013-07-28 07:26:00,
2013-07-28 02:41:00,57.6,52.0,30.02,WSW,250,0.0,-999.0,81,-99.99,,,0.00,weatherlink.com 1.10,2013-07-28 07:41:00,
2013-07-28 02:56:00,57.6,52.0,30.03,West,266,0.0,-999.0,82,-99.99,,,0.00,weatherlink.com 1.10,2013-07-28 07:56:00,
2013-07-28 03:11:00,57.3,52.0,30.02,West,266,0.0,-999.0,83,-99.99,,,0.00,weatherlink.com 1.10,2013-07-28 08:11:00,
2013-07-28 03:26:00,57.5,52.0,30.02,WSW,254,0.0,-999.0,83,-99.99,,,0.00,weatherlink.com 1.10,2013-07-28 08:26:00,
2013-07-28 03:41:00,57.1,52.0,30.02,SW,236,0.0,-999.0,84,-99.99,,,0.00,weatherlink.com 1.10,2013-07-28 08:41:00,
2013-07-28 03:56:00,56.9,52.0,30.02,SW,227,0.0,-999.0,84,-99.99,,,0.00,weatherlink.com 1.10,2013-07-28 08:56:00,
2013-07-28 04:11:00,57.0,52.0,30.02,SSW,201,1.0,-999.0,83,-99.99,,,0.00,weatherlink.com 1.10,2013-07-28 09:11:00,
2013-07-28 04:42:00,56.2,52.0,30.01,WSW,240,0.0,-999.0,84,-99.99,,,0.00,weatherlink.com 1.10,2013-07-28 09:42:00,
2013-07-28 04:57:00,55.9,51.0,30.02,WSW,246,0.0,-999.0,84,-99.99,,,0.00,weatherlink.com 1.10,2013-07-28 09:57:00,
2013-07-28 05:12:00,56.0,51.0,30.02,West,277,4.0,-999.0,82,-99.99,,,0.00,weatherlink.com 1.10,2013-07-28 10:12:00,
2013-07-28 05:27:00,55.4,50.0,30.02,WNW,288,0.0,-999.0,82,-99.99,,,0.00,weatherlink.com 1.10,2013-07-28 10:27:00,
2013-07-28 05:42:00,54.4,49.0,30.02,West,280,1.0,-999.0,82,-99.99,,,0.00,weatherlink.com 1.10,2013-07-28 10:42:00,
2013-07-28 05:57:00,53.8,49.0,30.03,WSW,242,0.0,-999.0,83,-99.99,,,0.00,weatherlink.com 1.10,2013-07-28 10:57:00,
2013-07-28 06:12:00,53.3,49.0,30.04,West,276,0.0,-999.0,84,-99.99,,,0.00,weatherlink.com 1.10,2013-07-28 11:12:00,
2013-07-28 06:27:00,52.9,49.0,30.04,WSW,254,0.0,-999.0,85,-99.99,,,0.00,weatherlink.com 1.10,2013-07-28 11:27:00,
2013-07-28 06:42:00,52.9,49.0,30.04,West,267,0.0,-999.0,85,-99.99,,,0.00,weatherlink.com 1.10,2013-07-28 11:42:00,
2013-07-28 06:57:00,53.1,49.0,30.05,WNW,292,0.0,-999.0,85,-99.99,,,0.00,weatherlink.com 1.10,2013-07-28 11:57:00,
2013-07-28 07:12:00,53.8,49.0,30.05,WNW,293,0.0,-999.0,84,-99.99,,,0.00,weatherlink.com 1.10,2013-07-28 12:12:00,
2013-07-28 07:28:00,54.3,49.0,30.06,WNW,300,1.0,-999.0,83,-99.99,,,0.00,weatherlink.com 1.10,2013-07-28 12:28:00,
2013-07-28 07:43:00,54.8,50.0,30.06,WSW,246,0.0,-999.0,83,-99.99,,,0.00,weatherlink.com 1.10,2013-07-28 12:43:00,
2013-07-28 07:58:00,55.2,50.0,30.06,NNW,340,0.0,-999.0,81,-99.99,,,0.00,weatherlink.com 1.10,2013-07-28 12:58:00,
2013-07-28 08:13:00,55.7,50.0,30.06,NW,322,4.0,-999.0,81,-99.99,,,0.00,weatherlink.com 1.10,2013-07-28 13:13:00,
2013-07-28 08:28:00,56.3,51.0,30.06,NW,309,0.0,-999.0,81,-99.99,,,0.00,weatherlink.com 1.10,2013-07-28 13:28:00,
2013-07-28 08:43:00,57.2,51.0,30.07,North,5,0.0,-999.0,79,-99.99,,,0.00,weatherlink.com 1.10,2013-07-28 13:43:00,
2013-07-28 08:58:00,58.3,51.0,30.07,NNE,13,0.0,-999.0,76,-99.99,,,0.00,weatherlink.com 1.10,2013-07-28 13:58:00,
2013-07-28 09:13:00,59.2,51.0,30.07,NW,306,1.0,-999.0,74,-99.99,,,0.00,weatherlink.com 1.10,2013-07-28 14:13:00,
2013-07-28 09:28:00,60.0,51.0,30.07,NW,306,0.0,-999.0,72,-99.99,,,0.00,weatherlink.com 1.10,2013-07-28 14:28:00,
2013-07-28 09:43:00,60.8,51.0,30.07,West,261,0.0,-999.0,70,-99.99,,,0.00,weatherlink.com 1.10,2013-07-28 14:43:00,
2013-07-28 09:58:00,61.6,50.0,30.06,NW,311,1.0,-999.0,67,-99.99,,,0.00,weatherlink.com 1.10,2013-07-28 14:58:00,
2013-07-28 10:14:00,62.5,52.0,30.06,WNW,301,0.0,-999.0,68,-99.99,,,0.00,weatherlink.com 1.10,2013-07-28 15:14:00,
2013-07-28 10:29:00,63.6,51.0,30.06,WNW,284,1.0,-999.0,64,-99.99,,,0.00,weatherlink.com 1.10,2013-07-28 15:29:00,
2013-07-28 10:44:00,64.4,51.0,30.06,West,259,6.0,-999.0,63,-99.99,,,0.00,weatherlink.com 1.10,2013-07-28 15:44:00,
2013-07-28 10:59:00,64.9,51.0,30.06,WSW,257,2.0,-999.0,60,-99.99,,,0.00,weatherlink.com 1.10,2013-07-28 15:59:00,
2013-07-28 11:14:00,66.1,52.0,30.06,NNW,336,1.0,-999.0,61,-99.99,,,0.00,weatherlink.com 1.10,2013-07-28 16:14:00,
2013-07-28 11:29:00,66.7,53.0,30.06,SE,127,0.0,-999.0,61,-99.99,,,0.00,weatherlink.com 1.10,2013-07-28 16:29:00,
2013-07-28 11:44:00,67.4,51.0,30.06,SSW,197,7.0,-999.0,57,-99.99,,,0.00,weatherlink.com 1.10,2013-07-28 16:44:00,
2013-07-28 11:59:00,67.8,51.0,30.06,WNW,282,2.0,-999.0,56,-99.99,,,0.00,weatherlink.com 1.10,2013-07-28 16:59:00,
2013-07-28 12:14:00,68.1,51.0,30.06,West,273,8.0,-999.0,54,-99.99,,,0.00,weatherlink.com 1.10,2013-07-28 17:14:00,
2013-07-28 12:30:00,69.1,52.0,30.06,NNW,342,5.0,-999.0,55,-99.99,,,0.00,weatherlink.com 1.10,2013-07-28 17:30:00,
2013-07-28 12:45:00,69.3,52.0,30.06,WNW,290,4.0,-999.0,54,-99.99,,,0.00,weatherlink.com 1.10,2013-07-28 17:45:00,
2013-07-28 13:00:00,70.5,53.0,30.05,NW,304,5.0,-999.0,55,-99.99,,,0.00,weatherlink.com 1.10,2013-07-28 18:00:00,
2013-07-28 13:15:00,70.3,51.0,30.05,NNW,344,3.0,-999.0,50,-99.99,,,0.00,weatherlink.com 1.10,2013-07-28 18:15:00,
2013-07-28 13:32:00,71.1,51.0,30.05,NNW,336,3.0,-999.0,49,-99.99,,,0.00,weatherlink.com 1.10,2013-07-28 18:32:00,
2013-07-28 13:45:00,71.4,53.0,30.05,West,272,5.0,-999.0,52,-99.99,,,0.00,weatherlink.com 1.10,2013-07-28 18:45:00,
2013-07-28 14:00:00,71.4,51.0,30.05,NW,313,0.0,-999.0,49,-99.99,,,0.00,weatherlink.com 1.10,2013-07-28 19:00:00,
2013-07-28 14:15:00,72.3,53.0,30.04,WSW,252,6.0,-999.0,51,-99.99,,,0.00,weatherlink.com 1.10,2013-07-28 19:15:00,
2013-07-28 14:31:00,72.4,53.0,30.04,WSW,251,4.0,-999.0,50,-99.99,,,0.00,weatherlink.com 1.10,2013-07-28 19:31:00,
2013-07-28 14:45:00,73.6,54.0,30.04,WSW,243,0.0,-999.0,50,-99.99,,,0.00,weatherlink.com 1.10,2013-07-28 19:45:00,
2013-07-28 15:00:00,73.2,52.0,30.04,NNW,340,4.0,-999.0,47,-99.99,,,0.00,weatherlink.com 1.10,2013-07-28 20:00:00,
2013-07-28 15:16:00,73.7,53.0,30.04,NNW,328,5.0,-999.0,48,-99.99,,,0.00,weatherlink.com 1.10,2013-07-28 20:16:00,
2013-07-28 15:31:00,73.7,52.0,30.03,WNW,298,0.0,-999.0,47,-99.99,,,0.00,weatherlink.com 1.10,2013-07-28 20:31:00,
2013-07-28 15:45:00,73.7,53.0,30.04,West,267,3.0,-999.0,49,-99.99,,,0.00,weatherlink.com 1.10,2013-07-28 20:45:00,
2013-07-28 16:01:00,73.7,53.0,30.04,NNE,13,3.0,-999.0,48,-99.99,,,0.00,weatherlink.com 1.10,2013-07-28 21:01:00,
2013-07-28 16:16:00,74.3,52.0,30.04,SSW,207,5.0,-999.0,46,-99.99,,,0.00,weatherlink.com 1.10,2013-07-28 21:16:00,
2013-07-28 16:46:00,73.7,52.0,30.03,NW,309,2.0,-999.0,47,-99.99,,,0.00,weatherlink.com 1.10,2013-07-28 21:46:00,
2013-07-28 17:01:00,74.2,53.0,30.03,NW,306,3.0,-999.0,48,-99.99,,,0.00,weatherlink.com 1.10,2013-07-28 22:01:00,
2013-07-28 17:16:00,74.5,53.0,30.04,West,269,0.0,-999.0,48,-99.99,,,0.00,weatherlink.com 1.10,2013-07-28 22:16:00,
2013-07-28 17:31:00,74.9,52.0,30.04,NNE,16,2.0,-999.0,45,-99.99,,,0.00,weatherlink.com 1.10,2013-07-28 22:31:00,
2013-07-28 17:46:00,74.4,52.0,30.03,WNW,298,0.0,-999.0,46,-99.99,,,0.00,weatherlink.com 1.10,2013-07-28 22:46:00,
2013-07-28 18:01:00,75.5,55.0,30.04,West,270,0.0,-999.0,49,-99.99,,,0.00,weatherlink.com 1.10,2013-07-28 23:01:00,
2013-07-28 18:16:00,75.6,54.0,30.03,West,281,0.0,-999.0,47,-99.99,,,0.00,weatherlink.com 1.10,2013-07-28 23:16:00,
2013-07-28 18:31:00,76.0,54.0,30.03,NW,326,2.0,-999.0,46,-99.99,,,0.00,weatherlink.com 1.10,2013-07-28 23:31:00,
2013-07-28 18:46:00,75.6,53.0,30.03,SW,217,0.0,-999.0,45,-99.99,,,0.00,weatherlink.com 1.10,2013-07-28 23:46:00,
2013-07-28 19:01:00,75.3,54.0,30.04,WNW,301,0.0,-999.0,47,-99.99,,,0.00,weatherlink.com 1.10,2013-07-29 00:01:00,
2013-07-28 19:16:00,75.0,53.0,30.04,WNW,301,0.0,-999.0,47,-99.99,,,0.00,weatherlink.com 1.10,2013-07-29 00:16:00,
2013-07-28 19:32:00,75.2,56.0,30.04,WNW,300,0.0,-999.0,52,-99.99,,,0.00,weatherlink.com 1.10,2013-07-29 00:32:00,
2013-07-28 19:47:00,72.9,56.0,30.04,WNW,300,0.0,-999.0,55,-99.99,,,0.00,weatherlink.com 1.10,2013-07-29 00:47:00,
2013-07-28 20:02:00,71.0,56.0,30.05,SW,217,0.0,-999.0,59,-99.99,,,0.00,weatherlink.com 1.10,2013-07-29 01:02:00,
2013-07-28 20:32:00,68.4,57.0,30.06,SW,217,0.0,-999.0,67,-99.99,,,0.00,weatherlink.com 1.10,2013-07-29 01:32:00,
2013-07-28 20:47:00,67.0,57.0,30.06,SW,217,0.0,-999.0,70,-99.99,,,0.00,weatherlink.com 1.10,2013-07-29 01:47:00,
2013-07-28 21:03:00,65.8,57.0,30.07,SW,217,0.0,-999.0,72,-99.99,,,0.00,weatherlink.com 1.10,2013-07-29 02:03:00,
2013-07-28 21:18:00,64.5,56.0,30.07,SW,217,0.0,-999.0,75,-99.99,,,0.00,weatherlink.com 1.10,2013-07-29 02:18:00,
2013-07-28 21:33:00,63.0,56.0,30.08,SW,217,0.0,-999.0,78,-99.99,,,0.00,weatherlink.com 1.10,2013-07-29 02:33:00,
2013-07-28 21:48:00,61.9,56.0,30.08,SW,217,0.0,-999.0,81,-99.99,,,0.00,weatherlink.com 1.10,2013-07-29 02:48:00,
2013-07-28 22:03:00,60.9,55.0,30.09,SW,217,0.0,-999.0,82,-99.99,,,0.00,weatherlink.com 1.10,2013-07-29 03:03:00,
2013-07-28 22:18:00,60.2,55.0,30.09,SW,217,0.0,-999.0,84,-99.99,,,0.00,weatherlink.com 1.10,2013-07-29 03:18:00,
2013-07-28 22:33:00,59.3,55.0,30.09,SW,217,0.0,-999.0,85,-99.99,,,0.00,weatherlink.com 1.10,2013-07-29 03:33:00,
2013-07-28 22:48:00,58.7,55.0,30.09,SW,217,0.0,-999.0,86,-99.99,,,0.00,weatherlink.com 1.10,2013-07-29 03:48:00,
2013-07-28 23:03:00,58.1,54.0,30.09,SW,217,0.0,-999.0,87,-99.99,,,0.00,weatherlink.com 1.10,2013-07-29 04:03:00,
2013-07-28 23:18:00,57.6,54.0,30.09,SW,217,0.0,-999.0,88,-99.99,,,0.00,weatherlink.com 1.10,2013-07-29 04:18:00,
2013-07-28 23:33:00,57.2,54.0,30.10,SW,217,0.0,-999.0,88,-99.99,,,0.00,weatherlink.com 1.10,2013-07-29 04:33:00,
2013-07-28 23:48:00,56.7,54.0,30.10,SW,217,0.0,-999.0,89,-99.99,,,0.00,weatherlink.com 1.10,2013-07-29 04:48:00,